Location: Anglesey
(53.1800°N, 4.2200°W)
Time: 11:44:54
(UTC+00:00)

Envisat - Visible Passes

Search period start: 17 February 2019 00:00
Search period end: 27 February 2019 00:00
Orbit: 764 x 766 km, 98.2° (Epoch: 16 February)

Date Brightness Start Highest point End Pass type
(mag) Time Alt. Az. Time Alt. Az. Time Alt. Az.
17 Feb 6.7 06:10:03 10° ENE 06:10:21 10° E 06:10:39 10° E visible
17 Feb 3.6 19:06:18 10° S 19:11:18 59° WSW 19:16:22 10° NNW visible
18 Feb 2.9 18:29:27 10° SSE 18:34:31 74° ENE 18:39:37 10° NNW visible
18 Feb 5.6 20:10:24 10° SW 20:14:07 20° W 20:17:50 10° NW visible
19 Feb 6.1 06:33:06 10° NE 06:36:19 17° E 06:39:33 10° SE visible
19 Feb 4.5 19:32:17 10° SSW 19:36:59 37° W 19:41:44 10° NNW visible
20 Feb 3.3 18:55:00 10° S 19:00:04 72° WSW 19:05:11 10° NNW visible
20 Feb 6.1 20:37:53 10° WSW 20:40:02 13° W 20:42:12 10° WNW visible
21 Feb 3.0 18:18:19 10° SSE 18:23:20 62° ENE 18:28:22 10° N visible
21 Feb 5.3 19:58:41 10° SW 20:02:46 24° W 20:06:53 10° NW visible
22 Feb 6.3 06:22:24 10° NE 06:24:57 14° E 06:27:28 10° ESE visible
22 Feb 4.2 19:20:51 10° S 19:25:42 45° W 19:30:37 10° NNW visible
23 Feb 3.1 18:43:45 10° SSE 18:48:50 86° WSW 18:53:58 10° NNW visible
23 Feb 6.0 20:25:42 10° WSW 20:28:39 15° W 20:31:37 10° NW visible
24 Feb 5.0 19:47:03 10° SSW 19:51:27 29° W 19:55:52 10° NNW visible
25 Feb 6.6 06:12:08 10° ENE 06:13:33 11° E 06:14:57 10° E visible
25 Feb 3.8 19:09:27 10° S 19:14:26 55° W 19:19:28 10° NNW visible
26 Feb 3.0 18:32:33 10° SSE 18:37:38 79° ENE 18:42:44 10° NNW visible
26 Feb 5.7 20:13:45 10° SW 20:17:17 19° W 20:20:49 10° NW visible
